Regional Weather Roundup
Issued by NWS

Current Version | Previous Version | Text Only | Print | Product List | Glossary On
Versions: 1 2 3 4 5 6 7 8 9 10 11 12 13 14 15 16 17 18 19 20 21 22 23 24 25 26 27 28 29 30 31 32 33 34 35 36 37 38 39 40 41 42 43 44 45 46 47 48 49 50
000
ASUS46 KLOX 030913
RWRCA

SOUTHERN CALIFORNIA WEATHER ROUNDUP
NATIONAL WEATHER SERVICE OXNARD CALIFORNIA
200 AM PDT WED JUN 03 2015

NOTE: "FAIR" INDICATES FEW OR NO CLOUDS BELOW 12,000 FEET WITH NO
SIGNIFICANT WEATHER AND/OR OBSTRUCTIONS TO VISIBILITY.

  -  STATIONS PRECEEDED BY AN ASTERISK (*) ARE NOT NWS OR FAA
     STATIONS AND ARE NOT SUBJECT TO NWS AND FAA QUALITY CONTROL.

CAZ041-042-087-031000-
LA AND ORANGE COUNTY COASTAL AREAS


CITY           SKY/WX    TMP DP  RH WIND       PRES   REMARKS
L.A. DOWNTOWN  CLOUDY    64  57  78 CALM      29.93S
L.A. AIRPORT   MOCLDY    61  58  90 S3        29.94S
LONG BEACH     CLOUDY    63  56  78 SW8       29.94S

CITY           SKY/WX    TMP DP  RH WIND       PRES   REMARKS
FULLERTON      CLOUDY    63  57  81 S5        29.93F
HAWTHORNE      CLOUDY    64  58  80 CALM      29.94S
*LOS ALAMITOS  CLOUDY    62  58  85 S6        29.94S
*REDONDO BEACH   N/A     60  56  85 CALM      29.93S
SANTA ANA      CLOUDY    63  55  75 SW5       29.94F
STA MONICA APT CLOUDY    62  58  86 S5        29.94S
*UCLA            N/A     61  55  82 SE2       29.91S

$$

CAZ547-548-048-031000-
LA COUNTY VALLEYS AND INLAND EMPIRE


CITY           SKY/WX    TMP DP  RH WIND       PRES   REMARKS
BURBANK        CLOUDY    62  56  80 SE8       29.93S
VAN NUYS       CLEAR     60  55  83 SE7       29.92F

CITY           SKY/WX    TMP DP  RH WIND       PRES   REMARKS
CORONA AIRPORT SUNNY     59  55  86 CALM      29.95S
*CHATSWORTH      N/A     61  54  78 E3        29.92R
CHINO          CLEAR     59  56  89 W3        29.95F
MARCH AFB      CLEAR     58  53  84 S2        29.94F
*NORTHRIDGE      N/A     61  54  77 E3          N/A
ONTARIO        MOCLDY    59  56  89 W6        29.94F
*PASADENA        N/A     61  59  94 CALM        N/A
RIVERSIDE      CLEAR     60  56  86 CALM      29.94F
SAN BERNARDINO NOT AVBL
*SAN GABRIEL     N/A     62  58  84 S5        30.01S
*WHITEMAN AP   NOT AVBL
*WOODLAND HILL   N/A     59  54  82 CALM        N/A

$$

CAZ054-055-031000-
LA AND SAN BERNARDINO COUNTY MOUNTAINS


CITY           SKY/WX    TMP DP  RH WIND       PRES   REMARKS
*BIG BEAR AIRP SUNNY     45  18  33 W7        30.09S
SANDBERG       CLEAR     59  43  55 NW21      30.02S

$$

CAZ028-029-059-060-099-031000-
ANTELOPE VALLEY AND SURROUNDING AREAS


CITY           SKY/WX    TMP DP  RH WIND       PRES   REMARKS
LANCASTER      CLEAR     64  45  49 SW15      29.90F
PALMDALE       CLEAR     64  46  52 SW14      29.91F

CITY           SKY/WX    TMP DP  RH WIND       PRES   REMARKS
29 PALMS       CLEAR     71  29  21 W9        29.90F
BARSTOW/DAGGET CLEAR     72  33  24 SW18      29.84F
BISHOP         PTCLDY    62  31  31 NW3       29.89S
CHINA LAKE     CLEAR     64  42  44 SW8       29.80F
EDWARDS AFB    CLEAR     63  44  49 SW12      29.86F
MOJAVE         FAIR      66  41  39 W24G35    29.87F
NEEDLES        CLEAR     83  24  11 W12       29.73S
VICTORVILLE    CLEAR     61  43  51 S3        29.92F

$$

CAZ039-040-031000-
VENTURA AND SANTA BARBARA COUNTY COAST


CITY           SKY/WX    TMP DP  RH WIND       PRES   REMARKS
CAMARILLO      CLOUDY    60  54  80 CALM      29.93S
NWS OXNARD       N/A     59  54  85 CALM      29.92S
OXNARD AIRPORT CLOUDY    61  55  81 CALM      29.92F
*POINT MUGU    CLOUDY    61  55  82 W8        29.94S
SBA APT/GOLETA CLEAR     59  56  89 CALM      29.91F
*SANTA BARBARA   N/A     60  54  80 CALM      29.99F
*VENTURA         N/A     58  53  83 CALM      29.53S

$$

CAZ044-045-031000-
VENTURA COUNTY VALLEYS


CITY           SKY/WX    TMP DP  RH WIND       PRES   REMARKS
*SIMI VALLEY     N/A     56  52  85 CALM      29.89R
*OJAI            N/A     52  49  87 CALM      29.86F
*FILLMORE        N/A     55  49  80 W5        29.83S

$$

CAZ053-031000-
VENTURA COUNTY MOUNTAINS


CITY           SKY/WX    TMP DP  RH WIND       PRES   REMARKS

$$

CAZ034-035-036-031000-
CENTRAL COAST AND SANTA YNEZ VALLEY


CITY           SKY/WX    TMP DP  RH WIND       PRES   REMARKS
SAN LUIS OBISP MOCLDY    54  52  93 S5        29.96F
SANTA MARIA    CLOUDY    56  53  90 S7        29.97F

CITY           SKY/WX    TMP DP  RH WIND       PRES   REMARKS
*CAL POLY SLO    N/A     52  52 100 E1          N/A
*LOMPOC        CLOUDY    57  48  72 NW13      29.98F
*PISMO BEACH     N/A     55  52  89 E1        29.97S
*SANTA YNEZ    CLOUDY    55  50  82 W5        29.96F

$$

CAZ037-038-051-031000-
SAN LUIS OBISPO COUNTY INTERIOR AND CUYAMA VALLEY


CITY           SKY/WX    TMP DP  RH WIND       PRES   REMARKS
*CUYAMA          N/A     57  47  69 CALM      29.88S
PASO ROBLES    CLEAR     57  48  72 NW10G22   29.95S

$$

CAZ032-033-061-031000-
SOUTHERN DESERTS


CITY           SKY/WX    TMP DP  RH WIND       PRES   REMARKS
BLYTHE         CLEAR     77  42  28 SW5       29.73F
IMPERIAL       CLEAR     77  30  17 W21G29    29.74S
PALM SPRINGS   CLEAR     75  45  34 CALM      29.77S
THERMAL        CLEAR     78  44  29 N14       29.73R

$$

ELSEWHERE ACROSS THE WESTERN UNITED STATES AND MEXICO


CITY           SKY/WX    TMP DP  RH WIND       PRES   REMARKS
DENVER, CO     CLEAR     57  48  72 SW9       29.94R
GRAND CANYON,  PTCLDY    33  18  53 CALM      30.11S
HONOLULU, HI   PTCLDY    77  64  65 E6        30.07S
KAHULUI, MAUI  PTCLDY    75  70  83 NE12      30.08S
LAKE TAHOE, CA CLOUDY    45  34  65 CALM      30.08F
LAS VEGAS, NV  CLEAR     79  37  22 S16       29.74S
MAMMOTH LAKES, FAIR      46  36  66 W9        30.08F
MEXICO CITY, M CLOUDY    61  50  67 NW7       30.28F
PHOENIX, AZ    CLEAR     84  22  10 SE7       29.79R
PORTLAND, OR   CLOUDY    56  54  93 CALM      30.09F
RENO, NV       MOCLDY    61  37  41 NW3       30.00F
SALT LAKE CITY CLEAR     64  44  48 W5        29.90R
SAN DIEGO, CA  CLOUDY    63  54  72 S5        29.97F
SAN FRANCISCO, MOCLDY    56  51  84 W20       29.96F
SAN JOSE, CA   MOCLDY    58  49  72 CALM      29.97F
SEATTLE, WA    CLOUDY    55  49  80 S6        30.07F
TIJUANA, MEX   CLOUDY    59  52  77 W7        29.99S

$$

STATION/POSITION TIME  TEMP    WIND        PRES    VSBY  WAVE
                       AIR SEA DIR/SP/G                  HT/PER
                 (UTC) (F)     (DEG/KT/KT) (MB)    (MI)  (FT/S)
POINT ARGUELLO B NOT AVBL
WEST SANTA BARBA 0850   56 54  320/ 19/ 23 1013.5F         6/ 8
POINT CONCEPTION NOT AVBL
EAST SANTA BARBA 0800   59 59  320/  4/  6 1013.5F
SANTA MONICA BAY 0850   61 64  150/  4/  6 1013.6F         4/19



USA.gov is the U.S. government's official web portal to all federal, state and local government web resources and services.